| time (UTC) | temp C | wind direction | speed KPH | gust KPH | rain 1hr cm | rain 24hr cm | rain mn cm | humidity % | barometer mb |
| 20260903150132 | 30 | 343 | 1.6 | 3.2 | 0.00 | 0.00 | 0.00 | 78 | 1014.7 |
| 20260903145632 | 29 | 133 | 1.6 | 4.8 | 0.00 | 0.00 | 0.00 | 79 | 1014.9 |
| 20260903145127 | 29 | 72 | 0.0 | 3.2 | 0.00 | 0.00 | 0.00 | 79 | 1014.9 |
| 20260903144626 | 29 | 108 | 0.0 | 3.2 | 0.00 | 0.00 | 0.00 | 79 | 1015.0 |
| 20260903144122 | 29 | 355 | 3.2 | 6.4 | 0.00 | 0.00 | 0.00 | 78 | 1014.8 |
| 20260903143618 | 29 | 297 | 1.6 | 3.2 | 0.00 | 0.00 | 0.00 | 81 | 1014.9 |
| 20260903143114 | 28 | 188 | 0.0 | 4.8 | 0.00 | 0.00 | 0.00 | 81 | 1014.6 |
| 20260903142609 | 28 | 99 | 3.2 | 4.8 | 0.00 | 0.00 | 0.00 | 83 | 1014.5 |
| 20260903142106 | 28 | 331 | 0.0 | 4.8 | 0.00 | 0.00 | 0.00 | 82 | 1014.6 |
| 20260903141601 | 28 | 223 | 0.0 | 3.2 | 0.00 | 0.00 | 0.00 | 82 | 1014.5 |
| 20260903141056 | 28 | 341 | 0.0 | 4.8 | 0.00 | 0.00 | 0.00 | 82 | 1014.5 |
| 20260903140552 | 28 | 126 | 0.0 | 3.2 | 0.00 | 0.00 | 0.00 | 83 | 1014.8 |
| 20260903140047 | 28 | 201 | 1.6 | 3.2 | 0.00 | 0.00 | 0.00 | 85 | 1014.6 |
| 20260903135542 | 28 | 101 | 0.0 | 3.2 | 0.00 | 0.00 | 0.00 | 84 | 1014.7 |
| 20260903135037 | 28 | 161 | 1.6 | 1.6 | 0.00 | 0.00 | 0.00 | 87 | 1015.0 |
| 20260903134536 | 28 | 197 | 0.0 | 3.2 | 0.00 | 0.00 | 0.00 | 87 | 1014.9 |
| 20260903134033 | 28 | 70 | 0.0 | 3.2 | 0.00 | 0.00 | 0.00 | 87 | 1014.8 |
| 20260903133530 | 28 | 28 | 1.6 | 4.8 | 0.00 | 0.00 | 0.00 | 88 | 1014.7 |
| 20260903133025 | 27 | 73 | 1.6 | 4.8 | 0.00 | 0.00 | 0.00 | 88 | 1014.6 |
| 20260903132520 | 28 | 96 | 1.6 | 6.4 | 0.00 | 0.00 | 0.00 | 89 | 1014.8 |
| 20260903132015 | 27 | 61 | 0.0 | 3.2 | 0.00 | 0.00 | 0.00 | 89 | 1014.7 |
| 20260903131510 | 27 | 131 | 0.0 | 3.2 | 0.00 | 0.00 | 0.00 | 90 | 1014.7 |
| 20260903131009 | 27 | 192 | 0.0 | 1.6 | 0.00 | 0.00 | 0.00 | 91 | 1014.4 |
| 20260903130504 | 27 | 353 | 0.0 | 4.8 | 0.00 | 0.00 | 0.00 | 92 | 1014.5 |
| 20260903130003 | 27 | 79 | 1.6 | 1.6 | 0.00 | 0.00 | 0.00 | 93 | 1014.8 |
| 20260903125502 | 27 | 227 | 0.0 | 1.6 | 0.00 | 0.00 | 0.00 | 94 | 1014.8 |
| 20260903124957 | 27 | 105 | 0.0 | 1.6 | 0.00 | 0.00 | 0.00 | 94 | 1014.8 |
| 20260903124452 | 27 | 236 | 0.0 | 1.6 | 0.00 | 0.00 | 0.00 | 94 | 1014.7 |
| 20260903123951 | 26 | 34 | 0.0 | 3.2 | 0.00 | 0.00 | 0.00 | 95 | 1014.8 |
| 20260903123446 | 26 | 137 | 0.0 | 1.6 | 0.00 | 0.00 | 0.00 | 95 | 1014.8 |
| 20260903122944 | 26 | 317 | 0.0 | 3.2 | 0.00 | 0.00 | 0.00 | 96 | 1014.9 |
| 20260903122444 | 26 | 198 | 0.0 | 0.0 | 0.00 | 0.00 | 0.00 | 97 | 1014.6 |
| 20260903121943 | 26 | 356 | 0.0 | 1.6 | 0.00 | 0.00 | 0.00 | 97 | 1014.8 |
| 20260903121438 | 26 | 134 | 0.0 | 1.6 | 0.00 | 0.00 | 0.00 | 97 | 1014.7 |
| 20260903120935 | 26 | 57 | 1.6 | 1.6 | 0.00 | 0.00 | 0.00 | 97 | 1014.6 |
| 20260903120433 | 26 | 22 | 1.6 | 3.2 | 0.00 | 0.00 | 0.00 | 97 | 1014.7 |
| 20260903115932 | 26 | 58 | 0.0 | 0.0 | 0.00 | 0.00 | 0.00 | 98 | 1014.6 |
| 20260903115432 | 26 | 20 | 0.0 | 0.0 | 0.00 | 0.00 | 0.00 | 98 | 1014.5 |
| 20260903114927 | 25 | 194 | 0.0 | 1.6 | 0.00 | 0.00 | 0.00 | 98 | 1014.5 |
| 20260903114422 | 25 | 352 | 0.0 | 1.6 | 0.00 | 0.00 | 0.00 | 98 | 1014.2 |
| 20260903113918 | 25 | 186 | 0.0 | 1.6 | 0.00 | 0.00 | 0.00 | 98 | 1014.4 |
| 20260903113413 | 25 | 130 | 0.0 | 1.6 | 0.00 | 0.00 | 0.00 | 98 | 1014.2 |
| 20260903112909 | 25 | 94 | 0.0 | 0.0 | 0.00 | 0.00 | 0.00 | 98 | 1014.0 |
| 20260903112405 | 25 | 57 | 0.0 | 0.0 | 0.00 | 0.00 | 0.00 | 98 | 1013.9 |
| 20260903111903 | 25 | 31 | 0.0 | 0.0 | 0.00 | 0.00 | 0.00 | 98 | 1013.9 |
| 20260903111403 | 25 | 205 | 0.0 | 1.6 | 0.00 | 0.00 | 0.00 | 98 | 1013.7 |
| 20260903110859 | 25 | 174 | 1.6 | 3.2 | 0.00 | 0.00 | 0.00 | 98 | 1013.5 |
| 20260903110355 | 25 | 226 | 0.0 | 0.0 | 0.00 | 0.00 | 0.00 | 98 | 1013.7 |
| 20260903105850 | 25 | 134 | 0.0 | 0.0 | 0.00 | 0.00 | 0.00 | 98 | 1013.6 |
| 20260903105345 | 25 | 198 | 0.0 | 0.0 | 0.00 | 0.00 | 0.00 | 98 | 1013.8 |
| 20260903104844 | 25 | 127 | 0.0 | 1.6 | 0.00 | 0.00 | 0.00 | 98 | 1013.6 |
| 20260903104339 | 25 | 13 | 0.0 | 0.0 | 0.00 | 0.00 | 0.00 | 98 | 1013.4 |
| 20260903103836 | 25 | 18 | 0.0 | 1.6 | 0.00 | 0.00 | 0.00 | 98 | 1013.4 |
| 20260903103332 | 25 | 354 | 1.6 | 1.6 | 0.00 | 0.00 | 0.00 | 98 | 1013.3 |
| 20260903102827 | 25 | 174 | 0.0 | 1.6 | 0.00 | 0.00 | 0.00 | 98 | 1013.2 |
| 20260903102321 | 25 | 55 | 0.0 | 1.6 | 0.00 | 0.00 | 0.00 | 98 | 1013.3 |
| 20260903101821 | 25 | 70 | 0.0 | 3.2 | 0.00 | 0.00 | 0.00 | 98 | 1013.4 |
| 20260903101316 | 25 | 65 | 0.0 | 0.0 | 0.00 | 0.00 | 0.00 | 99 | 1013.1 |
| 20260903100811 | 25 | 341 | 0.0 | 1.6 | 0.00 | 0.00 | 0.00 | 99 | 1013.3 |
| 20260903100306 | 25 | 19 | 0.0 | 0.0 | 0.00 | 0.00 | 0.00 | 99 | 1013.1 |
| 20260903095803 | 25 | 119 | 3.2 | 3.2 | 0.00 | 0.00 | 0.00 | 99 | 1013.0 |
| 20260903095257 | 25 | 94 | 0.0 | 0.0 | 0.00 | 0.00 | 0.00 | 99 | 1013.2 |
| 20260903094753 | 26 | 6 | 0.0 | 3.2 | 0.00 | 0.00 | 0.00 | 99 | 1013.3 |
| 20260903094247 | 26 | 46 | 0.0 | 3.2 | 0.00 | 0.00 | 0.00 | 99 | 1013.1 |
| 20260903093743 | 25 | 22 | 1.6 | 1.6 | 0.00 | 0.00 | 0.00 | 99 | 1013.0 |
| 20260903093239 | 25 | 334 | 0.0 | 1.6 | 0.00 | 0.00 | 0.00 | 99 | 1013.1 |
| 20260903092738 | 25 | 175 | 1.6 | 1.6 | 0.00 | 0.00 | 0.00 | 99 | 1013.1 |
| 20260903092233 | 25 | 176 | 0.0 | 0.0 | 0.00 | 0.00 | 0.00 | 99 | 1013.2 |
| 20260903091732 | 25 | 190 | 0.0 | 0.0 | 0.00 | 0.00 | 0.00 | 99 | 1013.2 |
| 20260903091226 | 25 | 18 | 0.0 | 0.0 | 0.00 | 0.00 | 0.00 | 99 | 1013.0 |
| 20260903090722 | 25 | 143 | 0.0 | 1.6 | 0.00 | 0.00 | 0.00 | 99 | 1013.0 |
| 20260903090220 | 25 | 43 | 0.0 | 0.0 | 0.00 | 0.00 | 0.00 | 98 | 1013.0 |
| 20260903085720 | 25 | 123 | 0.0 | 0.0 | 0.00 | 0.00 | 0.00 | 98 | 1012.9 |
| 20260903085215 | 25 | 123 | 0.0 | 0.0 | 0.00 | 0.00 | 0.00 | 98 | 1013.0 |
| 20260903084712 | 25 | 25 | 0.0 | 0.0 | 0.00 | 0.00 | 0.00 | 99 | 1013.0 |
| 20260903084208 | 25 | 25 | 0.0 | 0.0 | 0.00 | 0.00 | 0.00 | 98 | 1013.0 |
| 20260903083704 | 25 | 25 | 0.0 | 1.6 | 0.00 | 0.00 | 0.00 | 99 | 1013.1 |
| 20260903083203 | 25 | 13 | 0.0 | 0.0 | 0.00 | 0.00 | 0.00 | 98 | 1013.0 |
| 20260903082657 | 25 | 13 | 0.0 | 0.0 | 0.00 | 0.00 | 0.00 | 98 | 1013.0 |
| 20260903082154 | 25 | 13 | 0.0 | 0.0 | 0.00 | 0.00 | 0.00 | 98 | 1013.2 |
| 20260903081653 | 25 | 13 | 0.0 | 0.0 | 0.00 | 0.00 | 0.00 | 98 | 1013.0 |
| 20260903081149 | 25 | 98 | 0.0 | 0.0 | 0.00 | 0.00 | 0.00 | 98 | 1013.1 |
| 20260903080645 | 25 | 98 | 0.0 | 0.0 | 0.00 | 0.00 | 0.00 | 98 | 1013.0 |
| 20260903080143 | 25 | 98 | 0.0 | 0.0 | 0.00 | 0.00 | 0.00 | 98 | 1013.6 |
| 20260903075642 | 25 | 98 | 0.0 | 0.0 | 0.00 | 0.00 | 0.00 | 98 | 1013.4 |
| 20260903075137 | 25 | 98 | 0.0 | 0.0 | 0.00 | 0.00 | 0.00 | 98 | 1013.4 |
| 20260903074636 | 26 | 98 | 0.0 | 0.0 | 0.00 | 0.00 | 0.00 | 98 | 1013.3 |
| 20260903074132 | 25 | 98 | 0.0 | 0.0 | 0.00 | 0.00 | 0.00 | 98 | 1013.3 |
| 20260903073626 | 25 | 98 | 0.0 | 0.0 | 0.00 | 0.00 | 0.00 | 98 | 1013.2 |
| 20260903073122 | 26 | 98 | 0.0 | 0.0 | 0.00 | 0.00 | 0.00 | 98 | 1013.2 |
| 20260903072618 | 25 | 98 | 0.0 | 0.0 | 0.00 | 0.00 | 0.00 | 98 | 1013.4 |
| 20260903072114 | 26 | 98 | 0.0 | 0.0 | 0.00 | 0.00 | 0.00 | 98 | 1013.5 |
| 20260903071611 | 26 | 98 | 0.0 | 0.0 | 0.00 | 0.00 | 0.00 | 98 | 1013.6 |
| 20260903071110 | 25 | 98 | 0.0 | 0.0 | 0.00 | 0.00 | 0.00 | 98 | 1013.6 |
| 20260903070605 | 25 | 98 | 0.0 | 0.0 | 0.00 | 0.00 | 0.00 | 98 | 1013.6 |
| 20260903065600 | 26 | 98 | 0.0 | 0.0 | 0.00 | 0.00 | 0.00 | 98 | 1013.5 |
| 20260903065054 | 26 | 98 | 0.0 | 0.0 | 0.00 | 0.00 | 0.00 | 98 | 1013.7 |
| 20260903064555 | 26 | 98 | 0.0 | 0.0 | 0.00 | 0.00 | 0.00 | 98 | 1013.4 |
| 20260903064050 | 26 | 303 | 0.0 | 0.0 | 0.00 | 0.00 | 0.00 | 98 | 1013.5 |
| 20260903063545 | 26 | 303 | 0.0 | 0.0 | 0.00 | 0.00 | 0.00 | 98 | 1013.5 |
| 20260903063041 | 26 | 303 | 0.0 | 0.0 | 0.00 | 0.00 | 0.00 | 98 | 1013.6 |
| 20260903062536 | 26 | 303 | 0.0 | 0.0 | 0.00 | 0.00 | 0.00 | 98 | 1013.8 |
| 20260903062031 | 26 | 303 | 0.0 | 0.0 | 0.00 | 0.00 | 0.00 | 98 | 1013.8 |
| 20260903061527 | 26 | 303 | 0.0 | 0.0 | 0.00 | 0.00 | 0.00 | 98 | 1013.7 |
| 20260903061027 | 26 | 123 | 0.0 | 0.0 | 0.00 | 0.00 | 0.00 | 98 | 1014.1 |
| 20260903060526 | 26 | 123 | 0.0 | 0.0 | 0.00 | 0.00 | 0.00 | 98 | 1014.1 |
| 20260903060021 | 26 | 211 | 0.0 | 0.0 | 0.00 | 0.00 | 0.00 | 98 | 1014.0 |
| 20260903055519 | 26 | 211 | 0.0 | 0.0 | 0.00 | 0.00 | 0.00 | 98 | 1014.0 |
| 20260903055018 | 26 | 211 | 0.0 | 0.0 | 0.00 | 0.00 | 0.00 | 98 | 1014.1 |
| 20260903054513 | 26 | 211 | 0.0 | 0.0 | 0.00 | 0.00 | 0.00 | 98 | 1014.3 |
| 20260903054008 | 26 | 211 | 0.0 | 0.0 | 0.00 | 0.00 | 0.00 | 98 | 1014.5 |
| 20260903053503 | 26 | 242 | 0.0 | 0.0 | 0.00 | 0.00 | 0.00 | 98 | 1014.5 |
| 20260903052959 | 26 | 107 | 0.0 | 1.6 | 0.00 | 0.00 | 0.00 | 98 | 1014.4 |
| 20260903052455 | 26 | 85 | 0.0 | 0.0 | 0.00 | 0.00 | 0.00 | 98 | 1014.3 |
| 20260903051950 | 26 | 85 | 0.0 | 0.0 | 0.00 | 0.00 | 0.00 | 98 | 1014.4 |
| 20260903051445 | 26 | 198 | 0.0 | 0.0 | 0.00 | 0.00 | 0.00 | 98 | 1014.5 |
| 20260903050941 | 26 | 133 | 1.6 | 1.6 | 0.00 | 0.00 | 0.00 | 98 | 1014.5 |
| 20260903050439 | 26 | 85 | 0.0 | 0.0 | 0.00 | 0.00 | 0.00 | 98 | 1014.5 |
| 20260903045934 | 26 | 85 | 0.0 | 0.0 | 0.00 | 0.00 | 0.00 | 98 | 1014.7 |
| 20260903045430 | 26 | 98 | 0.0 | 0.0 | 0.00 | 0.00 | 0.00 | 98 | 1014.6 |
| 20260903044926 | 26 | 308 | 0.0 | 0.0 | 0.00 | 0.00 | 0.00 | 98 | 1014.6 |
| 20260903044427 | 26 | 308 | 0.0 | 0.0 | 0.00 | 0.00 | 0.00 | 98 | 1014.5 |
| 20260903043923 | 26 | 137 | 0.0 | 0.0 | 0.00 | 0.00 | 0.00 | 98 | 1014.4 |
| 20260903043419 | 26 | 98 | 0.0 | 0.0 | 0.00 | 0.00 | 0.00 | 98 | 1014.6 |
| 20260903042917 | 26 | 98 | 0.0 | 0.0 | 0.00 | 0.00 | 0.00 | 98 | 1014.8 |
| 20260903042413 | 26 | 87 | 0.0 | 0.0 | 0.00 | 0.00 | 0.00 | 98 | 1014.5 |
| 20260903041908 | 26 | 123 | 0.0 | 0.0 | 0.00 | 0.00 | 0.00 | 98 | 1014.6 |
| 20260903041404 | 26 | 91 | 0.0 | 0.0 | 0.00 | 0.00 | 0.00 | 98 | 1014.4 |
| 20260903040900 | 26 | 98 | 0.0 | 0.0 | 0.00 | 0.00 | 0.00 | 98 | 1014.3 |
| 20260903040359 | 26 | 85 | 0.0 | 0.0 | 0.00 | 0.00 | 0.00 | 98 | 1014.5 |
| 20260903035855 | 26 | 96 | 0.0 | 0.0 | 0.00 | 0.97 | 0.97 | 98 | 1014.6 |
| 20260903035350 | 26 | 25 | 0.0 | 0.0 | 0.00 | 0.97 | 0.97 | 98 | 1014.7 |
| 20260903034845 | 26 | 144 | 0.0 | 0.0 | 0.00 | 0.97 | 0.97 | 98 | 1014.7 |
| 20260903034341 | 26 | 144 | 0.0 | 1.6 | 0.00 | 0.97 | 0.97 | 98 | 1014.7 |
| 20260903033836 | 26 | 20 | 0.0 | 1.6 | 0.00 | 0.97 | 0.97 | 98 | 1014.7 |
| 20260903033331 | 26 | 223 | 0.0 | 0.0 | 0.00 | 0.97 | 0.97 | 98 | 1014.7 |
| 20260903032830 | 26 | 186 | 0.0 | 0.0 | 0.00 | 0.97 | 0.97 | 98 | 1014.6 |
| 20260903032327 | 26 | 193 | 0.0 | 3.2 | 0.00 | 0.97 | 0.97 | 98 | 1014.5 |
| 20260903031821 | 26 | 183 | 0.0 | 1.6 | 0.00 | 0.97 | 0.97 | 98 | 1014.8 |
| 20260903031321 | 26 | 107 | 0.0 | 0.0 | 0.00 | 0.97 | 0.97 | 98 | 1014.8 |
| 20260903030817 | 26 | 127 | 0.0 | 1.6 | 0.00 | 0.97 | 0.97 | 98 | 1014.8 |
| 20260903030313 | 26 | 41 | 0.0 | 0.0 | 0.00 | 0.97 | 0.97 | 98 | 1014.9 |
| 20260903025808 | 26 | 41 | 0.0 | 0.0 | 0.00 | 0.97 | 0.97 | 98 | 1014.9 |
| 20260903025306 | 26 | 205 | 0.0 | 0.0 | 0.00 | 0.97 | 0.97 | 98 | 1014.9 |
| 20260903024758 | 26 | 6 | 0.0 | 0.0 | 0.00 | 0.97 | 0.97 | 98 | 1014.8 |
| 20260903024257 | 26 | 56 | 0.0 | 0.0 | 0.00 | 0.97 | 0.97 | 98 | 1015.0 |
| 20260903023752 | 26 | 98 | 0.0 | 0.0 | 0.00 | 0.97 | 0.97 | 98 | 1015.0 |
| 20260903023249 | 26 | 94 | 0.0 | 0.0 | 0.00 | 0.97 | 0.97 | 98 | 1015.0 |
| 20260903022749 | 26 | 98 | 0.0 | 1.6 | 0.00 | 0.97 | 0.97 | 98 | 1014.9 |
| 20260903022247 | 26 | 85 | 0.0 | 0.0 | 0.00 | 0.97 | 0.97 | 98 | 1015.0 |
| 20260903021747 | 26 | 105 | 0.0 | 0.0 | 0.05 | 0.97 | 0.97 | 98 | 1015.0 |
| 20260903021242 | 26 | 105 | 0.0 | 0.0 | 0.05 | 0.97 | 0.97 | 98 | 1014.8 |
| 20260903020737 | 26 | 105 | 0.0 | 0.0 | 0.00 | 0.94 | 0.94 | 98 | 1015.0 |
| 20260903020231 | 25 | 116 | 0.0 | 0.0 | 0.00 | 0.94 | 0.94 | 98 | 1015.0 |
| 20260903015727 | 25 | 98 | 0.0 | 0.0 | 0.00 | 0.94 | 0.94 | 98 | 1015.0 |
| 20260903015222 | 25 | 116 | 0.0 | 0.0 | 0.00 | 0.94 | 0.94 | 98 | 1015.0 |
| 20260903014718 | 25 | 116 | 0.0 | 0.0 | 0.00 | 0.94 | 0.94 | 98 | 1014.8 |
| 20260903014217 | 25 | 116 | 0.0 | 0.0 | 0.00 | 0.94 | 0.94 | 97 | 1014.8 |
| 20260903013712 | 25 | 116 | 0.0 | 0.0 | 0.00 | 0.94 | 0.94 | 97 | 1014.8 |
| 20260903013211 | 25 | 116 | 0.0 | 0.0 | 0.00 | 0.94 | 0.94 | 97 | 1015.0 |
| 20260903012709 | 25 | 110 | 0.0 | 0.0 | 0.00 | 0.94 | 0.94 | 97 | 1014.9 |
| 20260903012204 | 25 | 110 | 0.0 | 0.0 | 0.00 | 0.94 | 0.94 | 97 | 1014.9 |
| 20260903011658 | 25 | 110 | 0.0 | 0.0 | 0.00 | 0.94 | 0.94 | 97 | 1014.8 |
| 20260903011152 | 25 | 137 | 0.0 | 0.0 | 0.00 | 0.94 | 0.94 | 97 | 1014.8 |
| 20260903010648 | 25 | 31 | 0.0 | 0.0 | 0.00 | 0.94 | 0.94 | 97 | 1014.9 |
| 20260903010147 | 25 | 31 | 0.0 | 0.0 | 0.00 | 0.94 | 0.94 | 97 | 1014.7 |
| 20260903005647 | 25 | 315 | 0.0 | 1.6 | 0.00 | 0.94 | 0.94 | 97 | 1014.6 |
| 20260903005142 | 25 | 175 | 1.6 | 1.6 | 0.00 | 0.94 | 0.94 | 97 | 1014.5 |
| 20260903004637 | 25 | 127 | 0.0 | 0.0 | 0.00 | 0.94 | 0.94 | 97 | 1014.6 |
| 20260903004132 | 25 | 180 | 0.0 | 0.0 | 0.00 | 0.94 | 0.94 | 97 | 1014.7 |
| 20260903003628 | 25 | 180 | 0.0 | 0.0 | 0.00 | 0.94 | 0.94 | 97 | 1014.5 |
| 20260903003123 | 25 | 180 | 0.0 | 0.0 | 0.00 | 0.94 | 0.94 | 97 | 1014.5 |
| 20260903002618 | 25 | 122 | 0.0 | 0.0 | 0.00 | 0.94 | 0.94 | 97 | 1014.5 |
| 20260903002118 | 25 | 31 | 0.0 | 0.0 | 0.00 | 0.94 | 0.94 | 97 | 1014.4 |
| 20260903001613 | 25 | 18 | 0.0 | 0.0 | 0.00 | 0.94 | 0.94 | 96 | 1014.4 |
| 20260903001107 | 25 | 18 | 0.0 | 0.0 | 0.00 | 0.94 | 0.94 | 96 | 1014.6 |
| 20260903000603 | 25 | 303 | 0.0 | 0.0 | 0.00 | 0.94 | 0.94 | 96 | 1014.4 |
| 20260902235601 | 25 | 274 | 0.0 | 0.0 | 0.00 | 0.94 | 0.94 | 96 | 1014.2 |
| 20260902235056 | 25 | 153 | 0.0 | 0.0 | 0.00 | 0.94 | 0.94 | 96 | 1014.2 |
| 20260902234550 | 25 | 18 | 0.0 | 0.0 | 0.00 | 0.94 | 0.94 | 96 | 1014.3 |
| 20260902234049 | 25 | 18 | 0.0 | 1.6 | 0.00 | 0.94 | 0.94 | 96 | 1014.5 |
| 20260902233544 | 25 | 229 | 0.0 | 1.6 | 0.00 | 0.94 | 0.94 | 95 | 1014.3 |
| 20260902233038 | 25 | 193 | 0.0 | 0.0 | 0.00 | 0.94 | 0.94 | 95 | 1014.5 |
| 20260902232538 | 25 | 189 | 1.6 | 1.6 | 0.00 | 0.94 | 0.94 | 95 | 1014.1 |
| 20260902232032 | 25 | 70 | 0.0 | 0.0 | 0.00 | 0.94 | 0.94 | 95 | 1014.4 |
| 20260902231527 | 25 | 42 | 0.0 | 1.6 | 0.00 | 0.94 | 0.94 | 95 | 1014.4 |
| 20260902231027 | 25 | 190 | 0.0 | 1.6 | 0.00 | 0.94 | 0.94 | 95 | 1014.4 |
| 20260902230521 | 25 | 211 | 0.0 | 0.0 | 0.00 | 0.94 | 0.94 | 95 | 1014.5 |
| 20260902230020 | 25 | 25 | 0.0 | 1.6 | 0.00 | 0.94 | 0.94 | 95 | 1014.5 |
| 20260902225516 | 25 | 205 | 0.0 | 1.6 | 0.00 | 0.94 | 0.94 | 94 | 1014.7 |
| 20260902225009 | 25 | 111 | 0.0 | 3.2 | 0.00 | 0.94 | 0.94 | 94 | 1014.7 |
| 20260902224508 | 25 | 107 | 0.0 | 1.6 | 0.00 | 0.94 | 0.94 | 93 | 1014.7 |
| 20260902224005 | 25 | 18 | 3.2 | 4.8 | 0.05 | 0.94 | 0.94 | 91 | 1014.8 |
| 20260902223501 | 25 | 176 | 0.0 | 3.2 | 0.30 | 0.94 | 0.94 | 91 | 1014.3 |
| 20260902223000 | 26 | 15 | 4.8 | 6.4 | 0.23 | 0.94 | 0.94 | 90 | 1014.7 |
| 20260902222459 | 26 | 122 | 1.6 | 4.8 | 0.00 | 0.89 | 0.89 | 91 | 1014.7 |
| 20260902221958 | 26 | 27 | 3.2 | 4.8 | 0.00 | 0.89 | 0.89 | 93 | 1014.9 |
| 20260902221457 | 26 | 43 | 0.0 | 1.6 | 0.00 | 0.89 | 0.89 | 94 | 1014.7 |
| 20260902220954 | 26 | 271 | 0.0 | 0.0 | 0.00 | 0.89 | 0.89 | 94 | 1014.7 |
| 20260902220453 | 26 | 271 | 0.0 | 0.0 | 0.00 | 0.89 | 0.89 | 94 | 1014.6 |
| 20260902215942 | 26 | 211 | 0.0 | 1.6 | 0.00 | 0.89 | 0.89 | 95 | 1014.7 |
| 20260902215438 | 26 | 123 | 0.0 | 0.0 | 0.00 | 0.89 | 0.89 | 95 | 1014.6 |
| 20260902214934 | 26 | 105 | 0.0 | 0.0 | 0.00 | 0.89 | 0.89 | 94 | 1014.7 |
| 20260902214432 | 26 | 14 | 0.0 | 0.0 | 0.00 | 0.89 | 0.89 | 94 | 1014.5 |
| 20260902213927 | 26 | 85 | 0.0 | 0.0 | 0.00 | 0.89 | 0.89 | 95 | 1014.7 |
| 20260902213423 | 26 | 198 | 0.0 | 1.6 | 0.00 | 0.89 | 0.89 | 95 | 1014.6 |
| 20260902212921 | 26 | 127 | 0.0 | 0.0 | 0.00 | 0.89 | 0.89 | 95 | 1014.8 |
| 20260902212418 | 26 | 236 | 0.0 | 1.6 | 0.00 | 0.89 | 0.89 | 95 | 1014.6 |
| 20260902211914 | 26 | 123 | 0.0 | 3.2 | 0.00 | 0.89 | 0.89 | 94 | 1014.5 |
| 20260902211410 | 26 | 327 | 0.0 | 1.6 | 0.00 | 0.89 | 0.89 | 94 | 1014.6 |
| 20260902210905 | 25 | 47 | 0.0 | 1.6 | 0.00 | 0.89 | 0.89 | 94 | 1014.8 |
| 20260902210404 | 25 | 116 | 0.0 | 1.6 | 0.00 | 0.89 | 0.89 | 94 | 1014.6 |
| 20260902205903 | 25 | 56 | 0.0 | 1.6 | 0.00 | 0.89 | 0.89 | 94 | 1014.9 |
| 20260902205357 | 25 | 216 | 0.0 | 3.2 | 0.05 | 0.89 | 0.89 | 94 | 1014.9 |
| 20260902204854 | 25 | 123 | 3.2 | 4.8 | 0.53 | 0.89 | 0.89 | 93 | 1014.8 |
| 20260902204353 | 25 | 99 | 1.6 | 6.4 | 2.11 | 0.89 | 0.89 | 92 | 1014.8 |
| 20260902203849 | 25 | 82 | 3.2 | 4.8 | 4.19 | 0.81 | 0.81 | 91 | 1014.6 |
| 20260902203344 | 26 | 74 | 3.2 | 9.7 | 3.25 | 0.53 | 0.53 | 89 | 1015.0 |
| 20260902202843 | 27 | 81 | 9.7 | 9.7 | 0.66 | 0.10 | 0.10 | 86 | 1014.8 |
| 20260902202334 | 28 | 84 | 3.2 | 8.0 | 0.00 | 0.00 | 0.00 | 77 | 1014.6 |
| 20260902201831 | 30 | 76 | 4.8 | 6.4 | 0.00 | 0.00 | 0.00 | 77 | 1014.5 |
| 20260902201330 | 30 | 37 | 0.0 | 6.4 | 0.00 | 0.00 | 0.00 | 77 | 1014.4 |
| 20260902200826 | 30 | 87 | 3.2 | 8.0 | 0.00 | 0.00 | 0.00 | 77 | 1014.4 |
| 20260902200321 | 30 | 80 | 4.8 | 11.3 | 0.00 | 0.00 | 0.00 | 75 | 1014.5 |
| 20260902195816 | 30 | 193 | 6.4 | 14.5 | 0.00 | 0.00 | 0.00 | 75 | 1014.4 |
| 20260902195315 | 30 | 61 | 4.8 | 8.0 | 0.00 | 0.00 | 0.00 | 72 | 1014.5 |
| 20260902194810 | 31 | 58 | 6.4 | 8.0 | 0.00 | 0.00 | 0.00 | 72 | 1014.8 |
| 20260902194305 | 31 | 92 | 4.8 | 12.9 | 0.00 | 0.00 | 0.00 | 72 | 1014.6 |
| 20260902193800 | 31 | 43 | 9.7 | 9.7 | 0.00 | 0.00 | 0.00 | 70 | 1014.4 |
| 20260902193256 | 31 | 42 | 9.7 | 9.7 | 0.00 | 0.00 | 0.00 | 69 | 1014.6 |
| 20260902192755 | 32 | 96 | 4.8 | 9.7 | 0.00 | 0.00 | 0.00 | 67 | 1014.6 |
| 20260902192254 | 31 | 67 | 3.2 | 8.0 | 0.00 | 0.00 | 0.00 | 69 | 1014.5 |
| 20260902191753 | 31 | 83 | 3.2 | 8.0 | 0.00 | 0.00 | 0.00 | 70 | 1014.7 |
| 20260902191249 | 31 | 72 | 6.4 | 9.7 | 0.00 | 0.00 | 0.00 | 70 | 1015.0 |
| 20260902190744 | 31 | 75 | 6.4 | 11.3 | 0.00 | 0.00 | 0.00 | 68 | 1014.8 |
| 20260902190243 | 32 | 33 | 9.7 | 9.7 | 0.00 | 0.00 | 0.00 | 67 | 1015.0 |
| 20260902185739 | 32 | 80 | 4.8 | 9.7 | 0.00 | 0.00 | 0.00 | 66 | 1014.9 |
| 20260902185235 | 32 | 77 | 6.4 | 11.3 | 0.00 | 0.00 | 0.00 | 65 | 1014.9 |
| 20260902184731 | 33 | 48 | 9.7 | 9.7 | 0.00 | 0.00 | 0.00 | 64 | 1014.9 |
| 20260902184226 | 32 | 104 | 4.8 | 11.3 | 0.00 | 0.00 | 0.00 | 65 | 1015.2 |
| 20260902183722 | 32 | 104 | 4.8 | 16.1 | 0.00 | 0.00 | 0.00 | 65 | 1015.0 |
| 20260902183218 | 33 | 108 | 4.8 | 8.0 | 0.00 | 0.00 | 0.00 | 63 | 1014.8 |
| 20260902182714 | 33 | 63 | 6.4 | 12.9 | 0.00 | 0.00 | 0.00 | 63 | 1015.1 |
| 20260902182210 | 32 | 155 | 4.8 | 11.3 | 0.00 | 0.00 | 0.00 | 65 | 1015.1 |
| 20260902181705 | 33 | 86 | 4.8 | 12.9 | 0.00 | 0.00 | 0.00 | 64 | 1015.0 |
| 20260902181200 | 32 | 72 | 4.8 | 11.3 | 0.00 | 0.00 | 0.00 | 65 | 1015.1 |
| 20260902180700 | 32 | 104 | 6.4 | 8.0 | 0.00 | 0.00 | 0.00 | 64 | 1015.1 |
| 20260902180155 | 32 | 94 | 4.8 | 6.4 | 0.00 | 0.00 | 0.00 | 63 | 1015.2 |
| 20260902175656 | 32 | 116 | 3.2 | 9.7 | 0.00 | 0.00 | 0.00 | 64 | 1015.1 |
| 20260902175151 | 32 | 58 | 8.0 | 8.0 | 0.00 | 0.00 | 0.00 | 62 | 1015.2 |
| 20260902174647 | 32 | 49 | 3.2 | 9.7 | 0.00 | 0.00 | 0.00 | 64 | 1015.2 |
| 20260902174143 | 32 | 65 | 8.0 | 16.1 | 0.00 | 0.00 | 0.00 | 65 | 1015.1 |
| 20260902173638 | 32 | 136 | 4.8 | 8.0 | 0.00 | 0.00 | 0.00 | 66 | 1015.3 |
| 20260902173133 | 31 | 84 | 3.2 | 12.9 | 0.00 | 0.00 | 0.00 | 66 | 1015.3 |
| 20260902172632 | 32 | 95 | 6.4 | 16.1 | 0.00 | 0.00 | 0.00 | 65 | 1015.4 |
| 20260902172127 | 32 | 112 | 4.8 | 9.7 | 0.00 | 0.00 | 0.00 | 66 | 1015.2 |
| 20260902171622 | 32 | 8 | 3.2 | 6.4 | 0.00 | 0.00 | 0.00 | 67 | 1015.4 |
| 20260902171118 | 32 | 81 | 3.2 | 8.0 | 0.00 | 0.00 | 0.00 | 65 | 1015.4 |
| 20260902170614 | 32 | 87 | 3.2 | 9.7 | 0.00 | 0.00 | 0.00 | 66 | 1015.5 |
| 20260902170109 | 32 | 29 | 11.3 | 11.3 | 0.00 | 0.00 | 0.00 | 66 | 1015.4 |
| 20260902165608 | 31 | 111 | 4.8 | 12.9 | 0.00 | 0.00 | 0.00 | 68 | 1015.6 |
| 20260902165103 | 31 | 66 | 8.0 | 8.0 | 0.00 | 0.00 | 0.00 | 67 | 1015.6 |
| 20260902164558 | 32 | 101 | 4.8 | 8.0 | 0.00 | 0.00 | 0.00 | 66 | 1015.7 |
| 20260902164057 | 31 | 74 | 8.0 | 8.0 | 0.00 | 0.00 | 0.00 | 68 | 1015.8 |
| 20260902163553 | 31 | 102 | 3.2 | 9.7 | 0.00 | 0.00 | 0.00 | 67 | 1015.9 |
| 20260902163051 | 32 | 87 | 6.4 | 9.7 | 0.00 | 0.00 | 0.00 | 68 | 1015.9 |
| 20260902162545 | 32 | 346 | 4.8 | 17.7 | 0.00 | 0.00 | 0.00 | 67 | 1015.9 |
| 20260902162040 | 32 | 97 | 3.2 | 9.7 | 0.00 | 0.00 | 0.00 | 66 | 1015.9 |
| 20260902161540 | 31 | 68 | 4.8 | 8.0 | 0.00 | 0.00 | 0.00 | 68 | 1016.3 |
| 20260902161036 | 32 | 34 | 4.8 | 9.7 | 0.00 | 0.00 | 0.00 | 66 | 1016.4 |
| 20260902160532 | 32 | 29 | 3.2 | 9.7 | 0.00 | 0.00 | 0.00 | 67 | 1016.0 |
| 20260902160027 | 32 | 48 | 6.4 | 9.7 | 0.00 | 0.00 | 0.00 | 68 | 1016.2 |
| 20260902155520 | 32 | 140 | 4.8 | 6.4 | 0.00 | 0.00 | 0.00 | 70 | 1016.3 |
| 20260902155019 | 31 | 75 | 4.8 | 8.0 | 0.00 | 0.00 | 0.00 | 69 | 1016.3 |
| 20260902154515 | 31 | 87 | 3.2 | 11.3 | 0.00 | 0.00 | 0.00 | 70 | 1016.3 |
| 20260902154009 | 30 | 50 | 1.6 | 11.3 | 0.00 | 0.00 | 0.00 | 70 | 1016.5 |
| 20260902153508 | 31 | 75 | 4.8 | 6.4 | 0.00 | 0.00 | 0.00 | 70 | 1016.4 |
| 20260902153004 | 31 | 69 | 4.8 | 16.1 | 0.00 | 0.00 | 0.00 | 68 | 1016.5 |
| 20260902152501 | 30 | 79 | 3.2 | 8.0 | 0.00 | 0.00 | 0.00 | 71 | 1016.7 |
| 20260902151955 | 30 | 68 | 3.2 | 6.4 | 0.00 | 0.00 | 0.00 | 71 | 1016.4 |
| 20260902151451 | 30 | 54 | 4.8 | 9.7 | 0.00 | 0.00 | 0.00 | 71 | 1016.6 |
| 20260902150950 | 30 | 41 | 11.3 | 11.3 | 0.00 | 0.00 | 0.00 | 70 | 1016.4 |
| 20260902150446 | 30 | 65 | 4.8 | 11.3 | 0.00 | 0.00 | 0.00 | 71 | 1016.6 |